TimeEDT,TemperatureF,Dew PointF,Humidity,Sea Level PressureIn,VisibilityMPH,Wind Direction,Wind SpeedMPH,Gust SpeedMPH,PrecipitationIn,Events,Conditions,WindDirDegrees,DateUTC
12:51 AM,36.0,27.0,70,30.05,10.0,WNW,10.4,-,N/A,,Overcast,300,2012-11-03 04:51:00
1:51 AM,36.0,27.0,70,30.06,10.0,WNW,11.5,-,N/A,,Overcast,300,2012-11-03 05:51:00
2:51 AM,34.0,28.0,79,30.06,10.0,NW,8.1,19.6,N/A,,Overcast,310,2012-11-03 06:51:00
3:51 AM,34.0,26.1,73,30.07,10.0,NNW,10.4,16.1,N/A,,Overcast,340,2012-11-03 07:51:00
4:51 AM,34.0,25.0,70,30.07,10.0,NW,3.5,-,N/A,,Overcast,320,2012-11-03 08:51:00
5:51 AM,34.0,26.1,73,30.09,10.0,WNW,6.9,-,N/A,,Overcast,290,2012-11-03 09:51:00
6:51 AM,34.0,26.1,73,30.12,10.0,West,9.2,-,N/A,,Overcast,280,2012-11-03 10:51:00
7:51 AM,34.0,26.1,73,30.14,10.0,WNW,8.1,-,N/A,,Overcast,290,2012-11-03 11:51:00
8:51 AM,34.0,27.0,75,30.15,10.0,WNW,10.4,16.1,N/A,,Overcast,290,2012-11-03 12:51:00
9:51 AM,35.1,27.0,72,30.16,10.0,WNW,8.1,-,N/A,,Overcast,290,2012-11-03 13:51:00
10:51 AM,35.1,27.0,72,30.17,10.0,West,10.4,-,N/A,,Overcast,280,2012-11-03 14:51:00
11:51 AM,36.0,27.0,70,30.17,10.0,WNW,9.2,-,N/A,,Overcast,300,2012-11-03 15:51:00
12:51 PM,36.0,27.0,70,30.17,10.0,NW,9.2,-,N/A,,Overcast,320,2012-11-03 16:51:00
1:51 PM,36.0,27.0,70,30.16,10.0,WNW,5.8,17.3,N/A,,Overcast,290,2012-11-03 17:51:00
2:51 PM,37.0,28.0,70,30.14,10.0,WNW,8.1,-,N/A,,Overcast,300,2012-11-03 18:51:00
3:51 PM,37.0,28.0,70,30.15,10.0,NW,5.8,-,N/A,,Overcast,320,2012-11-03 19:51:00
4:51 PM,37.0,28.0,70,30.16,10.0,NNW,4.6,-,N/A,,Overcast,330,2012-11-03 20:51:00
5:51 PM,37.0,28.0,70,30.12,10.0,Calm,Calm,-,N/A,,Overcast,0,2012-11-03 21:51:00
6:51 PM,36.0,28.0,73,30.15,10.0,North,3.5,-,N/A,,Overcast,350,2012-11-03 22:51:00
7:51 PM,36.0,28.9,76,30.15,10.0,Calm,Calm,-,N/A,,Overcast,0,2012-11-03 23:51:00
8:51 PM,35.1,28.9,78,30.16,10.0,Calm,Calm,-,N/A,,Overcast,0,2012-11-04 00:51:00
9:51 PM,34.0,28.9,82,30.15,10.0,Calm,Calm,-,N/A,,Scattered Clouds,0,2012-11-04 01:51:00
10:30 PM,30.2,28.4,93,30.09,10.0,Calm,Calm,-,N/A,,Mostly Cloudy,0,2012-11-04 02:30:00
10:51 PM,32.0,28.0,85,30.16,10.0,Calm,Calm,-,N/A,,Overcast,0,2012-11-04 02:51:00
11:19 PM,33.8,30.2,87,30.09,10.0,Calm,Calm,-,N/A,,Overcast,0,2012-11-04 03:19:00
11:51 PM,33.1,28.9,85,30.16,10.0,Calm,Calm,-,N/A,,Overcast,0,2012-11-04 03:51:00